Weather History for Shreveport, LA

Change the Weather History Date:

Sunday, October 14, 2012

  Actual Average Record
Temperature  
Mean Temperature 75 °F 67 °F  
Max Temperature 86 °F 79 °F 92 °F (1881)
Min Temperature 63 °F 55 °F 37 °F (1977)
Degree Days  
Heating Degree Days 0 2  
Month to date heating degree days 30 19  
Since 1 July heating degree days 32 25  
Cooling Degree Days 10 4  
Month to date cooling degree days 70 77  
Year to date cooling degree days 2866 2402  
Growing Degree Days 26 (Base 50)    
Moisture  
Dew Point 67 °F    
Average Humidity 70    
Maximum Humidity 100    
Minimum Humidity 40    
Precipitation  
Precipitation 2.12 in 0.15 in 3.01 in (1985)
Month to date precipitation 2.18 2.00  
Year to date precipitation 43.23 39.15  
Snow  
Snow 0.00 in - - ()
Month to date snowfall 0.0  
Since 1 July snowfall 0.0  
Since 1 September snowfall 0.0  
Snow Depth 0.00 in    
Sea Level Pressure  
Sea Level Pressure 29.98 in    
Wind  
Wind Speed 9 mph (WSW)    
Max Wind Speed 20 mph    
Max Gust Speed 32 mph    
Visibility 8 miles    
Events Rain , Thunderstorm    
T = Trace of Precipitation, MM = Missing Value Source: NWS Daily Summary

Daily Weather History Graph

Daily Weather History Graph

Search for Another Location

Airport:

Trip Planner

Search our weather history database for the weather conditions in past years. The results will help you decide how hot, cold, wet, or windy it might be!

Date:

Astronomy

Oct. 14, 2012 Rise Set
Actual Time 7:18 AM CDT 6:43 PM CDT
Civil Twilight 6:54 AM CDT 7:07 PM CDT
Nautical Twilight 6:25 AM CDT 7:36 PM CDT
Astronomical Twilight 5:57 AM CDT 8:04 PM CDT
Moon 6:19 AM CDT (10/14) 6:04 PM CDT (10/14)
Length of Visible Light 12h 13m
Length of Day
11h 24m
Waning Crescent, 1% of the Moon is Illuminated
Oct 14
Waning Crescent
Oct 15
New
Oct 21
First Quarter
Oct 29
Full
Nov 6
Last Quarter

Hourly Weather History & Observations

Time (CDT) Temp. Heat Index Dew Point Humidity Pressure Visibility Wind Dir Wind Speed Gust Speed Precip Events Conditions
12:56 AM 75.9 °F - 69.1 °F 79% 29.92 in 10.0 mi South 12.7 mph 23.0 mph N/A   Overcast
1:03 AM 75.2 °F - 69.8 °F 83% 29.93 in 10.0 mi South 12.7 mph 24.2 mph N/A   Overcast
1:56 AM 75.9 °F - 69.1 °F 79% 29.93 in 10.0 mi South 10.4 mph 24.2 mph N/A   Overcast
2:39 AM 75.2 °F - 69.8 °F 83% 29.93 in 5.0 mi South 11.5 mph 20.7 mph 0.01 in Rain , Thunderstorm Light Thunderstorms and Rain
2:56 AM 73.9 °F - 70.0 °F 87% 29.92 in 7.0 mi South 10.4 mph - 0.03 in Rain , Thunderstorm Light Thunderstorms and Rain
3:04 AM 73.4 °F - 69.8 °F 88% 29.93 in 10.0 mi South 10.4 mph - N/A   Overcast
3:56 AM 75.0 °F - 70.0 °F 84% 29.91 in 10.0 mi South 10.4 mph 18.4 mph 0.00 in   Overcast
4:46 AM 75.2 °F - 69.8 °F 83% 29.94 in 10.0 mi SW 5.8 mph - N/A Thunderstorm Thunderstorm
4:56 AM 75.0 °F - 70.0 °F 84% 29.95 in 10.0 mi WNW 6.9 mph - N/A Thunderstorm Thunderstorm
5:19 AM 69.8 °F - 66.2 °F 88% 29.97 in 7.0 mi NNW 15.0 mph 20.7 mph 0.20 in Rain , Thunderstorm Light Thunderstorms and Rain
5:56 AM 66.9 °F - 64.9 °F 93% 29.98 in 2.5 mi NW 8.1 mph - 0.54 in Rain , Thunderstorm Heavy Thunderstorms and Rain
6:17 AM 66.2 °F - 64.4 °F 94% 29.97 in 2.5 mi NW 11.5 mph - 0.40 in Rain , Thunderstorm Heavy Thunderstorms and Rain
6:31 AM 66.2 °F - 64.4 °F 94% 29.97 in 2.0 mi NW 5.8 mph - 0.87 in Rain , Thunderstorm Heavy Thunderstorms and Rain
6:36 AM 66.2 °F - 64.4 °F 94% 29.99 in 1.5 mi WNW 6.9 mph - 0.94 in Rain , Thunderstorm Heavy Thunderstorms and Rain
6:38 AM 66.2 °F - 64.4 °F 94% 29.99 in 1.0 mi West 13.8 mph 20.7 mph 0.99 in Rain , Thunderstorm Heavy Thunderstorms and Rain
6:44 AM 66.2 °F - 66.2 °F 100% 29.97 in 3.0 mi WSW 13.8 mph 20.7 mph 1.42 in Rain , Thunderstorm Heavy Thunderstorms and Rain
6:56 AM 66.9 °F - 66.0 °F 97% 29.97 in 5.0 mi WSW 9.2 mph - 1.45 in Rain , Thunderstorm Thunderstorms and Rain
7:03 AM 66.2 °F - 66.2 °F 100% 29.98 in 7.0 mi SSW 10.4 mph - 0.02 in Rain , Thunderstorm Thunderstorms and Rain
7:31 AM 66.2 °F - 66.2 °F 100% 29.96 in 7.0 mi South 10.4 mph - 0.10 in Rain Light Rain
7:56 AM 66.9 °F - 66.0 °F 97% 29.97 in 10.0 mi South 8.1 mph - 0.10 in   Mostly Cloudy
8:56 AM 70.0 °F - 69.1 °F 97% 29.99 in 10.0 mi South 4.6 mph - N/A   Mostly Cloudy
9:44 AM 73.4 °F - 71.6 °F 94% 30.01 in 7.0 mi SSE 8.1 mph - N/A   Overcast
9:56 AM 73.0 °F - 71.1 °F 93% 30.01 in 7.0 mi SSE 5.8 mph - N/A   Overcast
10:41 AM 73.4 °F - 71.6 °F 94% 30.02 in 7.0 mi WNW 10.4 mph - 0.00 in Rain Light Rain
10:53 AM 75.2 °F - 71.6 °F 89% 30.01 in 8.0 mi SSW 11.5 mph 20.7 mph 0.00 in   Overcast
10:56 AM 75.0 °F - 72.0 °F 90% 30.01 in 8.0 mi SW 10.4 mph 20.7 mph 0.00 in   Overcast
11:18 AM 77.0 °F - 73.4 °F 89% 30.01 in 10.0 mi SSW 13.8 mph 20.7 mph N/A   Mostly Cloudy
11:37 AM 78.8 °F - 73.4 °F 83% 30.02 in 10.0 mi SW 11.5 mph - N/A   Mostly Cloudy
11:56 AM 79.0 °F - 71.1 °F 77% 30.01 in 10.0 mi SW 13.8 mph 24.2 mph N/A   Mostly Cloudy
12:31 PM 82.4 °F 87.2 °F 71.6 °F 70% 30.01 in 10.0 mi SSW 12.7 mph - N/A   Scattered Clouds
12:56 PM 82.0 °F 85.9 °F 70.0 °F 67% 29.99 in 10.0 mi SW 13.8 mph 20.7 mph N/A   Mostly Cloudy
1:13 PM 82.4 °F 86.3 °F 69.8 °F 66% 29.99 in 10.0 mi WSW 13.8 mph - N/A   Mostly Cloudy
1:56 PM 84.0 °F 86.5 °F 66.9 °F 56% 29.96 in 10.0 mi WSW 15.0 mph - N/A   Scattered Clouds
2:56 PM 84.9 °F 87.1 °F 66.0 °F 53% 29.95 in 10.0 mi West 10.4 mph - N/A   Scattered Clouds
3:56 PM 84.9 °F 86.6 °F 64.9 °F 51% 29.95 in 10.0 mi NW 11.5 mph - N/A   Scattered Clouds
4:56 PM 84.0 °F 83.3 °F 57.0 °F 40% 29.96 in 10.0 mi WNW 11.5 mph - N/A   Partly Cloudy
5:56 PM 81.0 °F 81.1 °F 57.9 °F 45% 29.96 in 10.0 mi NW 9.2 mph - N/A   Partly Cloudy
6:56 PM 73.9 °F - 59.0 °F 59% 29.98 in 10.0 mi NW 6.9 mph - N/A   Partly Cloudy
7:56 PM 71.1 °F - 59.0 °F 66% 29.98 in 10.0 mi NW 6.9 mph - N/A   Partly Cloudy
8:56 PM 69.1 °F - 57.9 °F 68% 30.00 in 10.0 mi NW 4.6 mph - N/A   Partly Cloudy
9:56 PM 66.9 °F - 57.9 °F 73% 30.02 in 10.0 mi NW 4.6 mph - N/A   Clear
10:56 PM 66.0 °F - 57.9 °F 75% 30.04 in 10.0 mi NW 4.6 mph - N/A   Partly Cloudy
11:56 PM 66.2 °F - 57.2 °F 73% 30.04 in 10.0 mi NNW 8.1 mph - N/A   Clear